Location: Puketoi
(40.5833°S, 176.0167°E)
Time: 00:39:01
(UTC+00:00)

COSMOS 2455 - Pass Details

Date: 02 October 2023
Orbit: 902 x 907 km, 67.1° (Epoch: 03 December)

Event Time Altitude Azimuth Distance (km) Brightness Sun altitude
Rises 16:34:23 0° 198° (SSW) 3,562 6.0 -14.6°
Reaches altitude 10° 16:40:04 10° 155° (SSE) 2,612 5.9 -13.5°
Maximum altitude 16:40:49 10° 148° (SSE) 2,596 6.0 -13.4°
Drops below altitude 10° 16:41:34 10° 141° (SE) 2,610 6.1 -13.3°
Sets 16:47:12 0° 99° (E) 3,542 8.0 -12.2°
